EW1505 Weather Reports


time (UTC)temp
C
wind
direction
speed
KPH
gust
KPH
rain 1hr
cm
rain 24hr
cm
rain mn
cm
humidity
%
barometer
mb
20260503200922 16 234 8.0 12.9 0.00 0.05 0.03 35 1018.4
20260503194922 15 240 11.3 19.3 0.00 0.05 0.03 35 1018.8
20260503194022 15 246 8.0 11.3 0.00 0.05 0.03 36 1018.9
20260503193041 15 241 9.7 16.1 0.00 0.05 0.03 35 1019.2
20260503191122 16 184 8.0 17.7 0.00 0.05 0.03 35 1019.5
20260503185123 16 203 8.0 20.9 0.00 0.05 0.03 35 1019.7
20260503184124 15 181 6.4 17.7 0.00 0.05 0.03 36 1020.0
20260503184024 15 182 9.7 14.5 0.00 0.05 0.03 36 1020.0
20260503183024 15 238 14.5 20.9 0.00 0.05 0.03 36 1020.3
20260503181123 15 245 9.7 14.5 0.00 0.05 0.03 35 1020.4
20260503181022 15 259 11.3 19.3 0.00 0.05 0.03 35 1020.4
20260503180939 15 235 12.9 22.5 0.00 0.05 0.03 35 1020.4
20260503175923 15 249 11.3 22.5 0.00 0.05 0.03 36 1020.5
20260503174923 15 248 9.7 14.5 0.00 0.05 0.03 35 1020.7
20260503173121 15 219 9.7 20.9 0.00 0.05 0.03 37 1020.8
20260503172124 15 252 14.5 22.5 0.00 0.05 0.03 36 1021.0
20260503171221 15 254 8.0 17.7 0.00 0.05 0.03 37 1021.2
20260503170238 15 267 8.0 19.3 0.00 0.05 0.03 38 1021.3
20260503150224 11 253 8.0 12.9 0.00 0.05 0.03 53 1022.7
20260503131325 7 180 4.8 6.4 0.00 0.08 0.03 73 1023.3
20260503130324 6 180 11.3 16.1 0.00 0.08 0.03 77 1023.0
20260503110621 1 247 1.6 1.6 0.00 0.08 0.03 99 1022.4
20260503072923 0 292 0.0 0.0 0.00 0.05 0.00 95 1021.8
20260503071925 0 292 0.0 0.0 0.00 0.05 0.00 95 1021.7
20260503071841 0 292 0.0 0.0 0.00 0.05 0.00 96 1021.8
20260503070921 1 292 0.0 0.0 0.00 0.05 0.00 95 1021.9
20260503054622 1 360 0.0 0.0 0.00 0.05 0.00 94 1022.2
20260503053722 1 360 0.0 0.0 0.00 0.05 0.00 93 1022.2
20260503053624 1 360 0.0 0.0 0.00 0.05 0.00 93 1022.2
20260503052622 1 360 0.0 0.0 0.00 0.05 0.00 93 1022.2
20260503052521 1 360 0.0 0.0 0.00 0.05 0.00 93 1022.2
20260503045622 1 360 0.0 0.0 0.00 0.05 0.00 92 1022.1
20260503045539 1 360 0.0 0.0 0.00 0.05 0.00 92 1022.1
20260503042721 2 360 0.0 0.0 0.00 0.05 0.00 92 1022.2
20260503041821 2 360 0.0 0.0 0.00 0.05 0.00 91 1022.3
20260503040823 2 360 0.0 0.0 0.00 0.05 0.00 89 1022.1
20260503035847 2 360 0.0 0.0 0.00 0.05 0.05 90 1022.1
20260503034831 2 360 0.0 0.0 0.00 0.05 0.05 88 1022.2
20260503033829 2 360 0.0 0.0 0.00 0.05 0.05 87 1022.2
20260503032830 2 360 0.0 0.0 0.00 0.05 0.05 87 1022.2
20260503032730 2 360 0.0 0.0 0.00 0.05 0.05 87 1022.2
20260503031731 2 360 0.0 0.0 0.00 0.05 0.05 85 1022.3
20260503030729 2 360 0.0 0.0 0.00 0.05 0.05 85 1022.3
20260503025730 2 360 0.0 0.0 0.00 0.05 0.05 84 1022.2
20260503025631 2 360 0.0 0.0 0.00 0.05 0.05 84 1022.2
20260503024529 2 360 0.0 0.0 0.00 0.08 0.05 81 1022.3
20260503023531 3 360 0.0 0.0 0.00 0.08 0.05 80 1022.3
20260503023429 3 360 0.0 0.0 0.00 0.08 0.05 79 1022.2
20260503023329 3 360 0.0 0.0 0.00 0.08 0.05 78 1022.3
20260503022331 3 360 0.0 0.0 0.00 0.08 0.05 75 1022.3
20260503021430 3 360 0.0 0.0 0.00 0.08 0.05 72 1022.2
20260503021331 3 360 0.0 0.0 0.00 0.08 0.05 72 1022.3
20260503020429 4 360 0.0 0.0 0.00 0.08 0.05 69 1022.1
20260503015429 4 360 0.0 0.0 0.00 0.08 0.05 65 1022.0
20260503015330 4 360 0.0 0.0 0.00 0.08 0.05 65 1022.0
20260503013430 5 360 0.0 0.0 0.00 0.08 0.05 59 1021.7
20260503012529 6 360 0.0 0.0 0.00 0.08 0.05 58 1021.7
20260503012446 6 360 0.0 0.0 0.00 0.08 0.05 57 1021.7
20260503011431 6 360 0.0 0.0 0.00 0.08 0.05 56 1021.6
20260503010529 7 360 0.0 0.0 0.00 0.08 0.05 55 1021.5
20260503005530 7 360 0.0 3.2 0.00 0.08 0.05 53 1021.6
20260503004529 7 22 1.6 3.2 0.00 0.08 0.05 53 1021.4
20260503003546 8 22 0.0 0.0 0.00 0.08 0.05 50 1021.5
20260503001631 8 53 1.6 6.4 0.00 0.08 0.05 49 1021.3
20260503000647 9 348 1.6 9.7 0.00 0.08 0.05 47 1021.2
20260502235733 9 9 0.0 4.8 0.00 0.08 0.05 48 1021.1
20260502234732 10 20 6.4 9.7 0.00 0.08 0.05 47 1020.9
20260502234645 10 260 3.2 8.0 0.00 0.08 0.05 47 1021.0
20260502233730 10 22 0.0 0.0 0.00 0.08 0.05 46 1021.0
20260502232729 10 19 3.2 9.7 0.00 0.08 0.05 44 1020.8
20260502231732 10 331 6.4 12.9 0.00 0.08 0.05 44 1020.8
20260502230746 10 351 3.2 6.4 0.00 0.08 0.05 42 1020.8
20260502224830 11 338 0.0 1.6 0.00 0.08 0.05 42 1020.7
20260502224730 11 3 0.0 1.6 0.00 0.08 0.05 42 1020.7
20260502223730 11 347 4.8 11.3 0.00 0.08 0.05 40 1020.6
20260502221733 12 191 1.6 3.2 0.00 0.08 0.05 39 1020.4
20260502221632 12 292 0.0 1.6 0.00 0.08 0.05 38 1020.5
20260502220644 12 319 3.2 6.4 0.00 0.08 0.05 39 1020.4
20260502215729 12 157 3.2 8.0 0.00 0.08 0.05 39 1020.3
20260502214730 12 14 3.2 8.0 0.03 0.08 0.05 39 1020.4
20260502212730 12 171 3.2 4.8 0.03 0.08 0.05 40 1020.2
20260502212632 11 334 1.6 6.4 0.03 0.08 0.05 40 1020.3
20260502211631 12 27 8.0 11.3 0.03 0.08 0.05 39 1020.2
20260502210631 12 158 3.2 11.3 0.03 0.08 0.05 40 1020.2
20260502204630 11 298 1.6 4.8 0.00 0.05 0.03 40 1020.2
20260502203629 12 22 1.6 8.0 0.00 0.05 0.03 38 1020.3
20260502203531 12 19 6.4 11.3 0.00 0.05 0.03 38 1020.3